Location: Hokitika
(42.7170°S, 170.9670°E)
Time: 06:12:28
(UTC+12:00)

Meteor 2-10 Rocket - Pass Details

Date: 24 January 2019
Orbit: 735 x 884 km, 81.2° (Epoch: 21 April)

Event Time Altitude Azimuth Distance (km) Brightness Sun altitude
Rises 21:33:27 0° 352° (N) 3,178 6.5 -4.8°
Reaches altitude 10° 21:35:44 10° 352° (N) 2,275 5.7 -5.2°
Maximum altitude 21:40:51 88° 82° (E) 783 3.6 -6.0°
Drops below altitude 10° 21:46:14 10° 170° (S) 2,389 6.4 -6.8°
Sets 21:48:41 0° 169° (S) 3,349 7.2 -7.2°
